| time (UTC) | temp F | wind direction | speed knots | gust knots | rain 1hr in | rain 24hr in | rain mn in | humidity % | barometer mb |
| 20260502163525 | 79 | 331 | 2.6 | 5.2 | 0.00 | 0.00 | 0.00 | 31 | 1017.1 |
| 20260502163521 | 79 | 308 | 2.6 | 5.2 | 0.00 | 0.00 | 0.00 | 31 | 1017.1 |
| 20260502163517 | 79 | 290 | 2.6 | 5.2 | 0.00 | 0.00 | 0.00 | 31 | 1017.1 |
| 20260502163513 | 79 | 309 | 2.6 | 5.2 | 0.00 | 0.00 | 0.00 | 30 | 1017.1 |
| 20260502163509 | 76 | 292 | 0.9 | 1.7 | 0.00 | 0.00 | 0.00 | 31 | 1015.3 |
| 20260502163501 | 75 | 292 | 0.9 | 1.7 | 0.00 | 0.00 | 0.00 | 31 | 1015.2 |
| 20260502163457 | 79 | 309 | 2.6 | 5.2 | 0.00 | 0.00 | 0.00 | 31 | 1017.1 |
| 20260502163453 | 79 | 309 | 2.6 | 5.2 | 0.00 | 0.00 | 0.00 | 31 | 1017.1 |
| 20260502163449 | 79 | 317 | 2.6 | 5.2 | 0.00 | 0.00 | 0.00 | 30 | 1017.1 |
| 20260502163445 | 79 | 329 | 1.7 | 5.2 | 0.00 | 0.00 | 0.00 | 31 | 1017.1 |
| 20260502163441 | 78 | 307 | 1.7 | 5.2 | 0.00 | 0.00 | 0.00 | 31 | 1017.1 |
| 20260502163436 | 78 | 311 | 1.7 | 5.2 | 0.00 | 0.00 | 0.00 | 30 | 1017.1 |
| 20260502163432 | 78 | 5 | 1.7 | 5.2 | 0.00 | 0.00 | 0.00 | 31 | 1017.1 |
| 20260502163428 | 78 | 333 | 1.7 | 5.2 | 0.00 | 0.00 | 0.00 | 31 | 1017.1 |
| 20260502163424 | 78 | 317 | 0.9 | 5.2 | 0.00 | 0.00 | 0.00 | 31 | 1017.2 |
| 20260502163420 | 78 | 259 | 1.7 | 3.5 | 0.00 | 0.00 | 0.00 | 30 | 1017.2 |
| 20260502163416 | 78 | 186 | 1.7 | 5.2 | 0.00 | 0.00 | 0.00 | 31 | 1017.2 |
| 20260502163412 | 78 | 111 | 1.7 | 5.2 | 0.00 | 0.00 | 0.00 | 32 | 1017.2 |
| 20260502163408 | 75 | 291 | 0.9 | 1.7 | 0.00 | 0.00 | 0.00 | 32 | 1015.2 |
| 20260502163359 | 78 | 111 | 1.7 | 5.2 | 0.00 | 0.00 | 0.00 | 33 | 1017.2 |
| 20260502163355 | 79 | 109 | 1.7 | 6.1 | 0.00 | 0.00 | 0.00 | 32 | 1017.2 |
| 20260502163351 | 79 | 108 | 1.7 | 6.1 | 0.00 | 0.00 | 0.00 | 30 | 1017.2 |
| 20260502163347 | 78 | 101 | 2.6 | 8.7 | 0.00 | 0.00 | 0.00 | 31 | 1017.2 |
| 20260502163343 | 78 | 313 | 2.6 | 8.7 | 0.00 | 0.00 | 0.00 | 31 | 1017.3 |
| 20260502163335 | 78 | 313 | 2.6 | 8.7 | 0.00 | 0.00 | 0.00 | 31 | 1017.3 |
| 20260502163331 | 78 | 283 | 2.6 | 8.7 | 0.00 | 0.00 | 0.00 | 31 | 1017.3 |
| 20260502163327 | 78 | 284 | 2.6 | 8.7 | 0.00 | 0.00 | 0.00 | 31 | 1017.3 |
| 20260502163323 | 78 | 279 | 2.6 | 8.7 | 0.00 | 0.00 | 0.00 | 30 | 1017.3 |
| 20260502163318 | 78 | 318 | 2.6 | 8.7 | 0.00 | 0.00 | 0.00 | 31 | 1017.4 |
| 20260502163314 | 78 | 293 | 2.6 | 8.7 | 0.00 | 0.00 | 0.00 | 30 | 1017.4 |
| 20260502163310 | 78 | 293 | 2.6 | 8.7 | 0.00 | 0.00 | 0.00 | 30 | 1017.4 |
| 20260502163306 | 76 | 291 | 0.9 | 1.7 | 0.00 | 0.00 | 0.00 | 32 | 1015.3 |
| 20260502163302 | 78 | 303 | 2.6 | 8.7 | 0.00 | 0.00 | 0.00 | 33 | 1017.4 |
| 20260502163258 | 78 | 324 | 2.6 | 8.7 | 0.00 | 0.00 | 0.00 | 31 | 1017.4 |
| 20260502163254 | 78 | 329 | 1.7 | 7.0 | 0.00 | 0.00 | 0.00 | 32 | 1017.4 |
| 20260502163246 | 78 | 304 | 1.7 | 4.3 | 0.00 | 0.00 | 0.00 | 32 | 1017.4 |
| 20260502163242 | 78 | 303 | 1.7 | 4.3 | 0.00 | 0.00 | 0.00 | 32 | 1017.5 |
| 20260502163238 | 78 | 334 | 1.7 | 4.3 | 0.00 | 0.00 | 0.00 | 32 | 1017.5 |
| 20260502163234 | 78 | 331 | 1.7 | 4.3 | 0.00 | 0.00 | 0.00 | 32 | 1017.4 |
| 20260502163230 | 78 | 67 | 1.7 | 5.2 | 0.00 | 0.00 | 0.00 | 32 | 1017.4 |
| 20260502163226 | 78 | 315 | 1.7 | 7.0 | 0.00 | 0.00 | 0.00 | 31 | 1017.4 |
| 20260502163221 | 78 | 315 | 2.6 | 7.0 | 0.00 | 0.00 | 0.00 | 32 | 1017.4 |
| 20260502163217 | 78 | 315 | 2.6 | 7.0 | 0.00 | 0.00 | 0.00 | 32 | 1017.5 |
| 20260502163213 | 78 | 315 | 2.6 | 7.0 | 0.00 | 0.00 | 0.00 | 34 | 1017.5 |
| 20260502163209 | 78 | 316 | 2.6 | 7.0 | 0.00 | 0.00 | 0.00 | 31 | 1017.5 |
| 20260502163205 | 75 | 292 | 0.9 | 1.7 | 0.00 | 0.00 | 0.00 | 32 | 1015.3 |
| 20260502163201 | 78 | 196 | 2.6 | 7.0 | 0.00 | 0.00 | 0.00 | 31 | 1017.5 |
| 20260502163157 | 78 | 196 | 2.6 | 7.0 | 0.00 | 0.00 | 0.00 | 31 | 1017.5 |
| 20260502163153 | 75 | 292 | 0.9 | 2.6 | 0.00 | 0.00 | 0.00 | 32 | 1015.3 |
| 20260502163145 | 76 | 292 | 0.9 | 2.6 | 0.00 | 0.00 | 0.00 | 31 | 1015.3 |
| 20260502162930 | 78 | 195 | 3.5 | 7.0 | 0.00 | 0.00 | 0.00 | 29 | 1017.6 |
| 20260502162926 | 78 | 195 | 3.5 | 7.0 | 0.00 | 0.00 | 0.00 | 31 | 1017.6 |
| 20260502162922 | 78 | 278 | 3.5 | 7.0 | 0.00 | 0.00 | 0.00 | 32 | 1017.6 |
| 20260502162918 | 78 | 288 | 2.6 | 7.0 | 0.00 | 0.00 | 0.00 | 31 | 1017.6 |
| 20260502162914 | 78 | 303 | 2.6 | 7.0 | 0.00 | 0.00 | 0.00 | 31 | 1017.6 |
| 20260502162910 | 78 | 286 | 2.6 | 7.0 | 0.00 | 0.00 | 0.00 | 31 | 1017.6 |
| 20260502162905 | 76 | 292 | 0.9 | 2.6 | 0.00 | 0.00 | 0.00 | 32 | 1015.4 |
| 20260502162856 | 78 | 276 | 2.6 | 7.0 | 0.00 | 0.00 | 0.00 | 31 | 1017.6 |
| 20260502162852 | 78 | 268 | 2.6 | 7.0 | 0.00 | 0.00 | 0.00 | 32 | 1017.6 |
| 20260502162848 | 78 | 301 | 2.6 | 7.0 | 0.00 | 0.00 | 0.00 | 31 | 1017.6 |
| 20260502162844 | 78 | 308 | 2.6 | 7.0 | 0.00 | 0.00 | 0.00 | 31 | 1017.6 |
| 20260502162840 | 77 | 330 | 2.6 | 7.0 | 0.00 | 0.00 | 0.00 | 33 | 1017.8 |
| 20260502162836 | 77 | 329 | 2.6 | 7.0 | 0.00 | 0.00 | 0.00 | 33 | 1017.8 |
| 20260502162832 | 77 | 321 | 2.6 | 7.0 | 0.00 | 0.00 | 0.00 | 33 | 1017.6 |
| 20260502162828 | 77 | 307 | 2.6 | 7.0 | 0.00 | 0.00 | 0.00 | 33 | 1017.6 |
| 20260502162824 | 77 | 331 | 2.6 | 7.0 | 0.00 | 0.00 | 0.00 | 33 | 1017.8 |
| 20260502162819 | 77 | 337 | 2.6 | 6.1 | 0.00 | 0.00 | 0.00 | 33 | 1017.8 |
| 20260502162815 | 77 | 54 | 2.6 | 6.1 | 0.00 | 0.00 | 0.00 | 34 | 1017.8 |
| 20260502162811 | 77 | 46 | 2.6 | 6.1 | 0.00 | 0.00 | 0.00 | 34 | 1017.8 |
| 20260502162807 | 76 | 292 | 1.7 | 2.6 | 0.00 | 0.00 | 0.00 | 32 | 1015.4 |
| 20260502162803 | 77 | 22 | 2.6 | 6.1 | 0.00 | 0.00 | 0.00 | 34 | 1017.9 |
| 20260502162759 | 77 | 333 | 2.6 | 4.3 | 0.00 | 0.00 | 0.00 | 33 | 1017.8 |
| 20260502162755 | 76 | 296 | 2.6 | 4.3 | 0.00 | 0.00 | 0.00 | 33 | 1017.9 |
| 20260502162751 | 76 | 296 | 2.6 | 4.3 | 0.00 | 0.00 | 0.00 | 33 | 1017.9 |
| 20260502162747 | 76 | 296 | 2.6 | 4.3 | 0.00 | 0.00 | 0.00 | 34 | 1017.9 |
| 20260502162743 | 76 | 315 | 2.6 | 4.3 | 0.00 | 0.00 | 0.00 | 34 | 1017.9 |
| 20260502162739 | 76 | 329 | 2.6 | 7.0 | 0.00 | 0.00 | 0.00 | 34 | 1017.9 |
| 20260502162734 | 76 | 340 | 2.6 | 7.0 | 0.00 | 0.00 | 0.00 | 33 | 1017.9 |
| 20260502162730 | 76 | 336 | 2.6 | 7.0 | 0.00 | 0.00 | 0.00 | 33 | 1017.9 |
| 20260502162726 | 76 | 334 | 2.6 | 7.0 | 0.00 | 0.00 | 0.00 | 33 | 1018.0 |
| 20260502162722 | 76 | 38 | 2.6 | 7.0 | 0.00 | 0.00 | 0.00 | 33 | 1017.9 |
| 20260502162718 | 76 | 292 | 1.7 | 2.6 | 0.00 | 0.00 | 0.00 | 31 | 1015.4 |
| 20260502162714 | 76 | 292 | 1.7 | 2.6 | 0.00 | 0.00 | 0.00 | 32 | 1015.3 |
| 20260502162706 | 76 | 292 | 1.7 | 3.5 | 0.00 | 0.00 | 0.00 | 33 | 1015.4 |
| 20260502162450 | 76 | 332 | 2.6 | 7.0 | 0.00 | 0.00 | 0.00 | 33 | 1018.0 |
| 20260502162446 | 76 | 323 | 2.6 | 7.0 | 0.00 | 0.00 | 0.00 | 33 | 1018.0 |
| 20260502162442 | 76 | 323 | 2.6 | 7.0 | 0.00 | 0.00 | 0.00 | 35 | 1018.0 |
| 20260502162437 | 76 | 319 | 2.6 | 7.0 | 0.00 | 0.00 | 0.00 | 35 | 1018.0 |
| 20260502162429 | 76 | 302 | 3.5 | 7.0 | 0.00 | 0.00 | 0.00 | 34 | 1018.1 |
| 20260502162425 | 76 | 344 | 2.6 | 7.0 | 0.00 | 0.00 | 0.00 | 34 | 1018.0 |
| 20260502162421 | 76 | 312 | 2.6 | 7.0 | 0.00 | 0.00 | 0.00 | 34 | 1018.0 |
| 20260502162417 | 76 | 251 | 2.6 | 7.0 | 0.00 | 0.00 | 0.00 | 34 | 1018.0 |
| 20260502162413 | 76 | 250 | 2.6 | 7.0 | 0.00 | 0.00 | 0.00 | 34 | 1018.0 |
| 20260502162409 | 76 | 250 | 2.6 | 7.0 | 0.00 | 0.00 | 0.00 | 33 | 1018.0 |
| 20260502162405 | 76 | 292 | 1.7 | 3.5 | 0.00 | 0.00 | 0.00 | 33 | 1015.4 |
| 20260502162401 | 76 | 250 | 2.6 | 7.0 | 0.00 | 0.00 | 0.00 | 33 | 1018.1 |
| 20260502162351 | 76 | 250 | 2.6 | 7.0 | 0.00 | 0.00 | 0.00 | 34 | 1018.1 |
| 20260502162347 | 76 | 270 | 2.6 | 7.0 | 0.00 | 0.00 | 0.00 | 34 | 1018.1 |
| 20260502162343 | 76 | 283 | 2.6 | 7.0 | 0.00 | 0.00 | 0.00 | 34 | 1018.2 |
| 20260502162339 | 76 | 299 | 1.7 | 7.0 | 0.00 | 0.00 | 0.00 | 34 | 1018.1 |
| 20260502162331 | 76 | 355 | 1.7 | 4.3 | 0.00 | 0.00 | 0.00 | 34 | 1018.1 |
| 20260502162327 | 76 | 300 | 1.7 | 3.5 | 0.00 | 0.00 | 0.00 | 35 | 1018.1 |
| 20260502162323 | 76 | 225 | 1.7 | 4.3 | 0.00 | 0.00 | 0.00 | 35 | 1018.2 |
| 20260502162319 | 76 | 64 | 1.7 | 5.2 | 0.00 | 0.00 | 0.00 | 36 | 1018.1 |
| 20260502162315 | 76 | 64 | 2.6 | 5.2 | 0.00 | 0.00 | 0.00 | 34 | 1018.1 |
| 20260502162307 | 76 | 65 | 2.6 | 5.2 | 0.00 | 0.00 | 0.00 | 34 | 1018.2 |
| 20260502162304 | 76 | 292 | 1.7 | 3.5 | 0.00 | 0.00 | 0.00 | 32 | 1015.4 |
| 20260502162258 | 76 | 355 | 2.6 | 5.2 | 0.00 | 0.00 | 0.00 | 35 | 1018.2 |
| 20260502162254 | 75 | 355 | 2.6 | 5.2 | 0.00 | 0.00 | 0.00 | 35 | 1018.2 |
| 20260502162250 | 75 | 317 | 2.6 | 5.2 | 0.00 | 0.00 | 0.00 | 36 | 1018.2 |
| 20260502162246 | 75 | 314 | 2.6 | 5.2 | 0.00 | 0.00 | 0.00 | 35 | 1018.2 |
| 20260502162238 | 75 | 320 | 2.6 | 5.2 | 0.00 | 0.00 | 0.00 | 36 | 1018.2 |
| 20260502162234 | 75 | 48 | 2.6 | 5.2 | 0.00 | 0.00 | 0.00 | 35 | 1018.2 |
| 20260502162225 | 75 | 232 | 2.6 | 5.2 | 0.00 | 0.00 | 0.00 | 35 | 1018.3 |
| 20260502162221 | 76 | 291 | 1.7 | 3.5 | 0.00 | 0.00 | 0.00 | 32 | 1015.4 |
| 20260502162217 | 76 | 291 | 1.7 | 3.5 | 0.00 | 0.00 | 0.00 | 33 | 1015.4 |
| 20260502162213 | 76 | 292 | 1.7 | 3.5 | 0.00 | 0.00 | 0.00 | 33 | 1015.4 |
| 20260502161958 | 75 | 197 | 2.6 | 5.2 | 0.00 | 0.00 | 0.00 | 34 | 1018.2 |
| 20260502161954 | 75 | 202 | 2.6 | 5.2 | 0.00 | 0.00 | 0.00 | 34 | 1018.3 |
| 20260502161946 | 75 | 136 | 2.6 | 5.2 | 0.00 | 0.00 | 0.00 | 33 | 1018.3 |
| 20260502161942 | 75 | 241 | 1.7 | 7.8 | 0.00 | 0.00 | 0.00 | 34 | 1018.4 |
| 20260502161938 | 75 | 244 | 1.7 | 7.8 | 0.00 | 0.00 | 0.00 | 35 | 1018.4 |
| 20260502161934 | 75 | 240 | 1.7 | 7.8 | 0.00 | 0.00 | 0.00 | 33 | 1018.4 |
| 20260502161930 | 75 | 252 | 1.7 | 7.8 | 0.00 | 0.00 | 0.00 | 34 | 1018.4 |
| 20260502161922 | 75 | 304 | 1.7 | 7.8 | 0.00 | 0.00 | 0.00 | 34 | 1018.4 |
| 20260502161917 | 75 | 259 | 1.7 | 7.8 | 0.00 | 0.00 | 0.00 | 35 | 1018.5 |
| 20260502161913 | 75 | 246 | 1.7 | 7.8 | 0.00 | 0.00 | 0.00 | 34 | 1018.4 |
| 20260502161909 | 75 | 248 | 1.7 | 7.8 | 0.00 | 0.00 | 0.00 | 36 | 1018.4 |
| 20260502161905 | 75 | 207 | 1.7 | 7.8 | 0.00 | 0.00 | 0.00 | 35 | 1018.4 |
| 20260502161901 | 76 | 292 | 1.7 | 3.5 | 0.00 | 0.00 | 0.00 | 33 | 1015.5 |
| 20260502161848 | 75 | 343 | 1.7 | 7.8 | 0.00 | 0.00 | 0.00 | 36 | 1018.4 |
| 20260502161844 | 75 | 335 | 1.7 | 7.8 | 0.00 | 0.00 | 0.00 | 36 | 1018.5 |
| 20260502161840 | 75 | 335 | 2.6 | 7.8 | 0.00 | 0.00 | 0.00 | 34 | 1018.4 |
| 20260502161836 | 75 | 335 | 2.6 | 7.8 | 0.00 | 0.00 | 0.00 | 36 | 1018.5 |
| 20260502161831 | 75 | 346 | 2.6 | 7.8 | 0.00 | 0.00 | 0.00 | 36 | 1018.5 |
| 20260502161823 | 75 | 225 | 2.6 | 7.8 | 0.00 | 0.00 | 0.00 | 35 | 1018.5 |
| 20260502161819 | 75 | 223 | 2.6 | 7.8 | 0.00 | 0.00 | 0.00 | 34 | 1018.5 |
| 20260502161815 | 75 | 286 | 2.6 | 7.8 | 0.00 | 0.00 | 0.00 | 35 | 1018.6 |
| 20260502161811 | 75 | 286 | 2.6 | 7.8 | 0.00 | 0.00 | 0.00 | 35 | 1018.6 |
| 20260502161807 | 75 | 302 | 2.6 | 7.8 | 0.00 | 0.00 | 0.00 | 35 | 1018.6 |
| 20260502161803 | 76 | 292 | 1.7 | 3.5 | 0.00 | 0.00 | 0.00 | 33 | 1015.5 |
| 20260502161755 | 75 | 304 | 2.6 | 7.8 | 0.00 | 0.00 | 0.00 | 36 | 1018.6 |
| 20260502161751 | 74 | 297 | 2.6 | 6.1 | 0.00 | 0.00 | 0.00 | 36 | 1018.6 |
| 20260502161747 | 74 | 325 | 2.6 | 5.2 | 0.00 | 0.00 | 0.00 | 36 | 1018.6 |
| 20260502161743 | 74 | 15 | 2.6 | 5.2 | 0.00 | 0.00 | 0.00 | 35 | 1018.6 |
| 20260502161739 | 74 | 42 | 2.6 | 7.0 | 0.00 | 0.00 | 0.00 | 38 | 1018.6 |
| 20260502161730 | 74 | 53 | 2.6 | 7.8 | 0.00 | 0.00 | 0.00 | 37 | 1018.6 |
| 20260502161726 | 74 | 327 | 2.6 | 7.8 | 0.00 | 0.00 | 0.00 | 35 | 1018.6 |
| 20260502161722 | 74 | 327 | 2.6 | 7.8 | 0.00 | 0.00 | 0.00 | 33 | 1018.7 |
| 20260502161718 | 74 | 327 | 3.5 | 7.8 | 0.00 | 0.00 | 0.00 | 35 | 1018.6 |
| 20260502161714 | 74 | 325 | 3.5 | 7.8 | 0.00 | 0.00 | 0.00 | 34 | 1018.7 |
| 20260502161710 | 74 | 325 | 3.5 | 7.8 | 0.00 | 0.00 | 0.00 | 36 | 1018.7 |
| 20260502161706 | 76 | 292 | 1.7 | 3.5 | 0.00 | 0.00 | 0.00 | 33 | 1015.5 |
| 20260502161702 | 76 | 292 | 1.7 | 3.5 | 0.00 | 0.00 | 0.00 | 33 | 1015.4 |
| 20260502161654 | 76 | 277 | 1.7 | 3.5 | 0.00 | 0.00 | 0.00 | 33 | 1015.5 |
| 20260502161438 | 74 | 319 | 3.5 | 7.8 | 0.00 | 0.00 | 0.00 | 35 | 1018.7 |
| 20260502161434 | 74 | 287 | 3.5 | 7.8 | 0.00 | 0.00 | 0.00 | 35 | 1018.7 |
| 20260502161430 | 74 | 290 | 3.5 | 7.8 | 0.00 | 0.00 | 0.00 | 35 | 1018.7 |
| 20260502161426 | 74 | 260 | 3.5 | 7.8 | 0.00 | 0.00 | 0.00 | 35 | 1018.8 |
| 20260502161418 | 74 | 269 | 2.6 | 7.0 | 0.00 | 0.00 | 0.00 | 38 | 1018.8 |
| 20260502161414 | 74 | 338 | 2.6 | 7.0 | 0.00 | 0.00 | 0.00 | 38 | 1018.7 |
| 20260502161410 | 74 | 331 | 2.6 | 7.0 | 0.00 | 0.00 | 0.00 | 35 | 1018.8 |
| 20260502161406 | 74 | 291 | 2.6 | 7.0 | 0.00 | 0.00 | 0.00 | 35 | 1018.8 |
| 20260502161402 | 76 | 296 | 1.7 | 3.5 | 0.00 | 0.00 | 0.00 | 33 | 1015.5 |
| 20260502161349 | 74 | 263 | 2.6 | 6.1 | 0.00 | 0.00 | 0.00 | 36 | 1018.8 |
| 20260502161345 | 74 | 292 | 2.6 | 6.1 | 0.00 | 0.00 | 0.00 | 36 | 1018.8 |
| 20260502161341 | 76 | 296 | 1.7 | 3.5 | 0.00 | 0.00 | 0.00 | 33 | 1015.5 |
| 20260502161337 | 76 | 298 | 1.7 | 3.5 | 0.00 | 0.00 | 0.00 | 34 | 1015.5 |
| 20260502161333 | 76 | 298 | 1.7 | 3.5 | 0.00 | 0.00 | 0.00 | 32 | 1015.6 |
| 20260502161329 | 76 | 298 | 1.7 | 3.5 | 0.00 | 0.00 | 0.00 | 32 | 1015.5 |
| 20260502160902 | 76 | 298 | 1.7 | 3.5 | 0.00 | 0.00 | 0.00 | 33 | 1015.6 |
| 20260502160858 | 74 | 305 | 2.6 | 6.1 | 0.00 | 0.00 | 0.00 | 36 | 1018.8 |
| 20260502160854 | 74 | 287 | 2.6 | 6.1 | 0.00 | 0.00 | 0.00 | 36 | 1018.8 |
| 20260502160844 | 74 | 304 | 2.6 | 6.1 | 0.00 | 0.00 | 0.00 | 36 | 1018.8 |
| 20260502160840 | 74 | 315 | 2.6 | 6.1 | 0.00 | 0.00 | 0.00 | 36 | 1018.8 |
| 20260502160832 | 74 | 246 | 2.6 | 6.1 | 0.00 | 0.00 | 0.00 | 37 | 1018.8 |
| 20260502160828 | 74 | 244 | 2.6 | 6.1 | 0.00 | 0.00 | 0.00 | 37 | 1018.9 |
| 20260502160824 | 74 | 245 | 2.6 | 6.1 | 0.00 | 0.00 | 0.00 | 37 | 1018.8 |
| 20260502160820 | 74 | 315 | 3.5 | 8.7 | 0.00 | 0.00 | 0.00 | 37 | 1018.9 |
| 20260502160816 | 74 | 301 | 3.5 | 8.7 | 0.00 | 0.00 | 0.00 | 36 | 1018.9 |
| 20260502160808 | 74 | 279 | 3.5 | 8.7 | 0.00 | 0.00 | 0.00 | 36 | 1018.9 |
| 20260502160804 | 76 | 298 | 1.7 | 3.5 | 0.00 | 0.00 | 0.00 | 32 | 1015.6 |
| 20260502160800 | 74 | 335 | 3.5 | 8.7 | 0.00 | 0.00 | 0.00 | 37 | 1018.9 |
| 20260502160756 | 74 | 262 | 3.5 | 8.7 | 0.00 | 0.00 | 0.00 | 36 | 1018.9 |
| 20260502160751 | 74 | 277 | 3.5 | 8.7 | 0.00 | 0.00 | 0.00 | 36 | 1018.9 |
| 20260502160747 | 74 | 314 | 3.5 | 8.7 | 0.00 | 0.00 | 0.00 | 36 | 1018.9 |
| 20260502160739 | 74 | 315 | 3.5 | 8.7 | 0.00 | 0.00 | 0.00 | 35 | 1018.9 |
| 20260502160735 | 74 | 263 | 3.5 | 8.7 | 0.00 | 0.00 | 0.00 | 36 | 1018.9 |
| 20260502160731 | 74 | 271 | 3.5 | 8.7 | 0.00 | 0.00 | 0.00 | 36 | 1019.0 |
| 20260502160727 | 74 | 310 | 3.5 | 8.7 | 0.00 | 0.00 | 0.00 | 35 | 1018.9 |
| 20260502160723 | 73 | 295 | 3.5 | 8.7 | 0.00 | 0.00 | 0.00 | 37 | 1019.0 |
| 20260502160714 | 73 | 302 | 3.5 | 8.7 | 0.00 | 0.00 | 0.00 | 37 | 1019.0 |
| 20260502160710 | 73 | 323 | 3.5 | 8.7 | 0.00 | 0.00 | 0.00 | 37 | 1019.1 |
| 20260502160706 | 73 | 281 | 2.6 | 8.7 | 0.00 | 0.00 | 0.00 | 37 | 1019.1 |
| 20260502160702 | 76 | 306 | 1.7 | 3.5 | 0.00 | 0.00 | 0.00 | 34 | 1015.6 |
| 20260502160658 | 73 | 306 | 2.6 | 8.7 | 0.00 | 0.00 | 0.00 | 36 | 1019.1 |
| 20260502160654 | 73 | 315 | 2.6 | 8.7 | 0.00 | 0.00 | 0.00 | 35 | 1019.1 |
| 20260502160646 | 73 | 331 | 3.5 | 8.7 | 0.00 | 0.00 | 0.00 | 36 | 1019.1 |
| 20260502160642 | 73 | 298 | 3.5 | 8.7 | 0.00 | 0.00 | 0.00 | 37 | 1019.1 |
| 20260502160637 | 73 | 310 | 3.5 | 8.7 | 0.00 | 0.00 | 0.00 | 37 | 1019.1 |
| 20260502160633 | 73 | 319 | 3.5 | 8.7 | 0.00 | 0.00 | 0.00 | 37 | 1019.1 |
| 20260502160629 | 73 | 355 | 3.5 | 8.7 | 0.00 | 0.00 | 0.00 | 34 | 1019.2 |
| 20260502160621 | 73 | 331 | 3.5 | 8.7 | 0.00 | 0.00 | 0.00 | 34 | 1019.2 |
| 20260502160617 | 73 | 315 | 3.5 | 8.7 | 0.00 | 0.00 | 0.00 | 35 | 1019.1 |
| 20260502160613 | 73 | 313 | 4.3 | 8.7 | 0.00 | 0.00 | 0.00 | 36 | 1019.1 |
| 20260502160609 | 73 | 324 | 4.3 | 8.7 | 0.00 | 0.00 | 0.00 | 35 | 1019.1 |
| 20260502160605 | 73 | 355 | 4.3 | 8.7 | 0.00 | 0.00 | 0.00 | 36 | 1019.2 |
| 20260502160601 | 76 | 307 | 1.7 | 3.5 | 0.00 | 0.00 | 0.00 | 33 | 1015.6 |
| 20260502160551 | 73 | 306 | 4.3 | 8.7 | 0.00 | 0.00 | 0.00 | 36 | 1019.3 |
| 20260502160547 | 73 | 329 | 4.3 | 8.7 | 0.00 | 0.00 | 0.00 | 36 | 1019.3 |
| 20260502160543 | 73 | 355 | 4.3 | 8.7 | 0.00 | 0.00 | 0.00 | 36 | 1019.3 |
| 20260502160539 | 73 | 328 | 4.3 | 8.7 | 0.00 | 0.00 | 0.00 | 36 | 1019.2 |
| 20260502160535 | 73 | 314 | 4.3 | 8.7 | 0.00 | 0.00 | 0.00 | 36 | 1019.4 |
| 20260502160527 | 73 | 309 | 4.3 | 8.7 | 0.00 | 0.00 | 0.00 | 36 | 1019.3 |
| 20260502160523 | 73 | 300 | 4.3 | 8.7 | 0.00 | 0.00 | 0.00 | 37 | 1019.4 |
| 20260502160519 | 73 | 331 | 4.3 | 8.7 | 0.00 | 0.00 | 0.00 | 36 | 1019.3 |
| 20260502160515 | 73 | 306 | 3.5 | 7.8 | 0.00 | 0.00 | 0.00 | 36 | 1019.3 |
| 20260502160511 | 73 | 306 | 4.3 | 7.8 | 0.00 | 0.00 | 0.00 | 37 | 1019.3 |
| 20260502160503 | 76 | 307 | 1.7 | 3.5 | 0.00 | 0.00 | 0.00 | 33 | 1015.7 |
| 20260502160454 | 73 | 291 | 3.5 | 7.8 | 0.00 | 0.00 | 0.00 | 37 | 1019.3 |
| 20260502160450 | 73 | 294 | 4.3 | 7.8 | 0.00 | 0.00 | 0.00 | 37 | 1019.3 |
| 20260502160446 | 72 | 312 | 3.5 | 7.8 | 0.00 | 0.00 | 0.00 | 35 | 1019.3 |
| 20260502160442 | 72 | 335 | 3.5 | 7.8 | 0.00 | 0.00 | 0.00 | 36 | 1019.3 |
| 20260502160438 | 72 | 303 | 3.5 | 7.8 | 0.00 | 0.00 | 0.00 | 35 | 1019.3 |
| 20260502160430 | 72 | 286 | 3.5 | 7.8 | 0.00 | 0.00 | 0.00 | 38 | 1019.4 |
| 20260502160426 | 72 | 326 | 3.5 | 7.8 | 0.00 | 0.00 | 0.00 | 37 | 1019.3 |
| 20260502160422 | 72 | 268 | 3.5 | 7.8 | 0.00 | 0.00 | 0.00 | 37 | 1019.3 |
| 20260502160418 | 72 | 282 | 3.5 | 7.8 | 0.00 | 0.00 | 0.00 | 37 | 1019.3 |
| 20260502160413 | 72 | 300 | 3.5 | 7.8 | 0.00 | 0.00 | 0.00 | 38 | 1019.4 |
| 20260502160404 | 72 | 305 | 3.5 | 7.8 | 0.00 | 0.00 | 0.00 | 37 | 1019.3 |
| 20260502160400 | 76 | 238 | 1.7 | 2.6 | 0.00 | 0.00 | 0.00 | 33 | 1015.6 |
| 20260502160356 | 72 | 303 | 2.6 | 7.8 | 0.00 | 0.00 | 0.00 | 37 | 1019.4 |
| 20260502160352 | 72 | 332 | 2.6 | 7.8 | 0.00 | 0.00 | 0.00 | 38 | 1019.4 |
| 20260502160343 | 72 | 280 | 3.5 | 7.8 | 0.00 | 0.00 | 0.00 | 37 | 1019.3 |
| 20260502160339 | 72 | 338 | 3.5 | 7.8 | 0.00 | 0.00 | 0.00 | 38 | 1019.4 |
| 20260502160331 | 71 | 287 | 3.5 | 7.0 | 0.00 | 0.00 | 0.00 | 36 | 1019.4 |
| 20260502160326 | 71 | 255 | 3.5 | 9.6 | 0.00 | 0.00 | 0.00 | 36 | 1019.4 |
| 20260502160322 | 71 | 259 | 3.5 | 9.6 | 0.00 | 0.00 | 0.00 | 39 | 1019.4 |
| 20260502160318 | 71 | 228 | 3.5 | 9.6 | 0.00 | 0.00 | 0.00 | 37 | 1019.5 |
| 20260502160314 | 71 | 330 | 3.5 | 9.6 | 0.00 | 0.00 | 0.00 | 36 | 1019.5 |
| 20260502160306 | 71 | 331 | 3.5 | 9.6 | 0.00 | 0.00 | 0.00 | 37 | 1019.5 |
| 20260502160302 | 76 | 236 | 1.7 | 2.6 | 0.00 | 0.00 | 0.00 | 32 | 1015.7 |
| 20260502160258 | 71 | 294 | 4.3 | 9.6 | 0.00 | 0.00 | 0.00 | 36 | 1019.5 |
| 20260502160254 | 71 | 290 | 4.3 | 9.6 | 0.00 | 0.00 | 0.00 | 36 | 1019.5 |
| 20260502160250 | 71 | 313 | 3.5 | 9.6 | 0.00 | 0.00 | 0.00 | 37 | 1019.5 |
| 20260502160245 | 71 | 313 | 3.5 | 9.6 | 0.00 | 0.00 | 0.00 | 38 | 1019.5 |
| 20260502160237 | 71 | 315 | 3.5 | 9.6 | 0.00 | 0.00 | 0.00 | 39 | 1019.5 |
| 20260502160233 | 71 | 317 | 2.6 | 7.0 | 0.00 | 0.00 | 0.00 | 39 | 1019.4 |
| 20260502160229 | 71 | 291 | 2.6 | 7.0 | 0.00 | 0.00 | 0.00 | 38 | 1019.5 |
| 20260502160225 | 71 | 263 | 2.6 | 7.0 | 0.00 | 0.00 | 0.00 | 38 | 1019.5 |
| 20260502160221 | 71 | 323 | 2.6 | 7.0 | 0.00 | 0.00 | 0.00 | 38 | 1019.7 |
| 20260502160213 | 71 | 316 | 2.6 | 7.0 | 0.00 | 0.00 | 0.00 | 38 | 1019.5 |
| 20260502160209 | 71 | 323 | 2.6 | 7.8 | 0.00 | 0.00 | 0.00 | 37 | 1019.5 |
| 20260502160204 | 71 | 344 | 3.5 | 7.8 | 0.00 | 0.00 | 0.00 | 38 | 1019.7 |
| 20260502160200 | 76 | 236 | 1.7 | 2.6 | 0.00 | 0.00 | 0.00 | 31 | 1015.7 |
| 20260502160156 | 71 | 254 | 3.5 | 7.8 | 0.00 | 0.00 | 0.00 | 38 | 1019.7 |
| 20260502160152 | 71 | 254 | 3.5 | 7.8 | 0.00 | 0.00 | 0.00 | 37 | 1019.7 |
| 20260502160144 | 70 | 253 | 3.5 | 7.8 | 0.00 | 0.00 | 0.00 | 37 | 1019.7 |
| 20260502160140 | 70 | 259 | 3.5 | 7.8 | 0.00 | 0.00 | 0.00 | 37 | 1019.7 |
| 20260502160136 | 70 | 292 | 3.5 | 7.8 | 0.00 | 0.00 | 0.00 | 37 | 1019.7 |
| 20260502160132 | 70 | 278 | 3.5 | 7.8 | 0.00 | 0.00 | 0.00 | 38 | 1019.7 |
| 20260502160128 | 70 | 272 | 3.5 | 7.8 | 0.00 | 0.00 | 0.00 | 37 | 1019.8 |
| 20260502160124 | 70 | 284 | 3.5 | 7.8 | 0.00 | 0.00 | 0.00 | 37 | 1019.8 |
| 20260502160120 | 76 | 236 | 1.7 | 3.5 | 0.00 | 0.00 | 0.00 | 32 | 1015.7 |
| 20260502160111 | 76 | 236 | 1.7 | 3.5 | 0.00 | 0.00 | 0.00 | 30 | 1015.7 |
| 20260502160107 | 76 | 236 | 1.7 | 3.5 | 0.00 | 0.00 | 0.00 | 31 | 1015.7 |
| 20260501184701 | 60 | 94 | 1.7 | 8.7 | 0.00 | 0.00 | 0.00 | 43 | 1021.8 |
| 20260501184602 | 60 | 113 | 1.7 | 8.7 | 0.00 | 0.00 | 0.00 | 43 | 1021.9 |
| 20260501184501 | 60 | 88 | 1.7 | 8.7 | 0.00 | 0.00 | 0.00 | 43 | 1021.9 |
| 20260501184400 | 60 | 86 | 1.7 | 8.7 | 0.00 | 0.00 | 0.00 | 43 | 1021.8 |
| 20260501184330 | 60 | 94 | 1.7 | 8.7 | 0.00 | 0.00 | 0.00 | 43 | 1021.8 |
| 20260501184301 | 60 | 108 | 1.7 | 8.7 | 0.00 | 0.00 | 0.00 | 42 | 1021.8 |
| 20260501184202 | 60 | 84 | 1.7 | 8.7 | 0.00 | 0.00 | 0.00 | 42 | 1021.8 |
| 20260501184100 | 60 | 107 | 1.7 | 8.7 | 0.00 | 0.00 | 0.00 | 42 | 1021.8 |
| 20260501184000 | 60 | 99 | 1.7 | 8.7 | 0.00 | 0.00 | 0.00 | 42 | 1021.8 |
| 20260501183901 | 60 | 96 | 2.6 | 8.7 | 0.00 | 0.00 | 0.00 | 42 | 1021.8 |
| 20260501183829 | 60 | 83 | 1.7 | 6.1 | 0.00 | 0.00 | 0.00 | 42 | 1021.8 |
| 20260501183801 | 60 | 127 | 1.7 | 6.1 | 0.00 | 0.00 | 0.00 | 42 | 1021.8 |
| 20260501183701 | 61 | 103 | 1.7 | 6.1 | 0.00 | 0.00 | 0.00 | 42 | 1021.8 |
| 20260501183600 | 61 | 105 | 2.6 | 6.1 | 0.00 | 0.00 | 0.00 | 42 | 1021.8 |
| 20260501183500 | 61 | 98 | 1.7 | 6.1 | 0.00 | 0.00 | 0.00 | 41 | 1021.7 |
| 20260501183400 | 61 | 74 | 1.7 | 6.1 | 0.00 | 0.00 | 0.00 | 42 | 1021.8 |
| 20260501183330 | 61 | 82 | 1.7 | 6.1 | 0.00 | 0.00 | 0.00 | 42 | 1021.7 |
| 20260501183301 | 61 | 68 | 1.7 | 6.1 | 0.00 | 0.00 | 0.00 | 42 | 1021.7 |
| 20260501183201 | 61 | 117 | 1.7 | 6.1 | 0.00 | 0.00 | 0.00 | 42 | 1021.7 |
| 20260501183100 | 61 | 139 | 1.7 | 7.0 | 0.00 | 0.00 | 0.00 | 42 | 1021.7 |
| 20260501183000 | 61 | 101 | 1.7 | 7.0 | 0.00 | 0.00 | 0.00 | 41 | 1021.7 |
| 20260501182900 | 61 | 110 | 1.7 | 7.0 | 0.00 | 0.00 | 0.00 | 41 | 1021.7 |
| 20260501182830 | 61 | 103 | 1.7 | 7.0 | 0.00 | 0.00 | 0.00 | 41 | 1021.7 |
| 20260501182801 | 61 | 90 | 1.7 | 7.0 | 0.00 | 0.00 | 0.00 | 41 | 1021.7 |
| 20260501182702 | 61 | 82 | 1.7 | 7.0 | 0.00 | 0.00 | 0.00 | 41 | 1021.7 |
| 20260501182607 | 61 | 50 | 1.7 | 7.0 | 0.00 | 0.00 | 0.00 | 41 | 1021.7 |
| 20260501182553 | 62 | 84 | 1.7 | 7.0 | 0.00 | 0.00 | 0.00 | 41 | 1021.7 |
| 20260501182546 | 61 | 118 | 1.7 | 7.0 | 0.00 | 0.00 | 0.00 | 41 | 1021.7 |
| 20260501182542 | 62 | 96 | 1.7 | 7.0 | 0.00 | 0.00 | 0.00 | 41 | 1021.7 |
| 20260501182305 | 62 | 105 | 1.7 | 7.0 | 0.00 | 0.00 | 0.00 | 41 | 1021.7 |
| 20260501182201 | 62 | 90 | 1.7 | 7.0 | 0.00 | 0.00 | 0.00 | 40 | 1021.7 |
| 20260501182102 | 62 | 99 | 1.7 | 7.0 | 0.00 | 0.00 | 0.00 | 40 | 1021.7 |
| 20260501182002 | 62 | 95 | 1.7 | 7.0 | 0.00 | 0.00 | 0.00 | 40 | 1021.7 |
| 20260501181901 | 62 | 88 | 1.7 | 7.0 | 0.00 | 0.00 | 0.00 | 40 | 1021.7 |
| 20260501181830 | 62 | 99 | 2.6 | 7.0 | 0.00 | 0.00 | 0.00 | 40 | 1021.6 |
| 20260501181801 | 62 | 82 | 2.6 | 7.0 | 0.00 | 0.00 | 0.00 | 40 | 1021.6 |
| 20260501181701 | 62 | 82 | 1.7 | 8.7 | 0.00 | 0.00 | 0.00 | 40 | 1021.6 |
| 20260501181601 | 62 | 96 | 2.6 | 8.7 | 0.00 | 0.00 | 0.00 | 40 | 1021.6 |
| 20260501181501 | 62 | 93 | 2.6 | 8.7 | 0.00 | 0.00 | 0.00 | 40 | 1021.6 |
| 20260501181401 | 62 | 93 | 1.7 | 8.7 | 0.00 | 0.00 | 0.00 | 40 | 1021.6 |
| 20260501181330 | 62 | 102 | 1.7 | 8.7 | 0.00 | 0.00 | 0.00 | 40 | 1021.6 |
| 20260501181301 | 62 | 103 | 1.7 | 8.7 | 0.00 | 0.00 | 0.00 | 40 | 1021.6 |
| 20260501181201 | 62 | 131 | 1.7 | 8.7 | 0.00 | 0.00 | 0.00 | 40 | 1021.6 |
| 20260501181101 | 62 | 80 | 1.7 | 8.7 | 0.00 | 0.00 | 0.00 | 40 | 1021.6 |
| 20260501181000 | 62 | 88 | 1.7 | 8.7 | 0.00 | 0.00 | 0.00 | 40 | 1021.6 |
| 20260501180901 | 62 | 101 | 1.7 | 8.7 | 0.00 | 0.00 | 0.00 | 40 | 1021.6 |
| 20260501180829 | 62 | 103 | 1.7 | 8.7 | 0.00 | 0.00 | 0.00 | 40 | 1021.6 |
| 20260501180801 | 63 | 99 | 1.7 | 8.7 | 0.00 | 0.00 | 0.00 | 39 | 1021.6 |
| 20260501180701 | 63 | 130 | 2.6 | 11.3 | 0.00 | 0.00 | 0.00 | 39 | 1021.5 |
| 20260501180604 | 63 | 99 | 2.6 | 11.3 | 0.00 | 0.00 | 0.00 | 39 | 1021.6 |
| 20260501180546 | 63 | 92 | 2.6 | 11.3 | 0.00 | 0.00 | 0.00 | 39 | 1021.6 |
| 20260501180542 | 63 | 117 | 2.6 | 11.3 | 0.00 | 0.00 | 0.00 | 39 | 1021.6 |
| 20260501180252 | 63 | 100 | 2.6 | 11.3 | 0.00 | 0.00 | 0.00 | 39 | 1021.6 |
| 20260501180152 | 63 | 67 | 2.6 | 11.3 | 0.00 | 0.00 | 0.00 | 39 | 1021.6 |
| 20260501180052 | 63 | 102 | 2.6 | 11.3 | 0.00 | 0.00 | 0.00 | 39 | 1021.6 |
| 20260501175952 | 63 | 96 | 2.6 | 11.3 | 0.00 | 0.00 | 0.00 | 39 | 1021.6 |
| 20260501175852 | 63 | 75 | 2.6 | 11.3 | 0.00 | 0.00 | 0.00 | 39 | 1021.7 |
| 20260501175829 | 63 | 72 | 2.6 | 11.3 | 0.00 | 0.00 | 0.00 | 39 | 1021.7 |
| 20260501175746 | 63 | 83 | 1.7 | 11.3 | 0.00 | 0.00 | 0.00 | 39 | 1021.7 |
| 20260501175645 | 63 | 65 | 1.7 | 9.6 | 0.00 | 0.00 | 0.00 | 39 | 1021.7 |
| 20260501175551 | 63 | 123 | 1.7 | 9.6 | 0.00 | 0.00 | 0.00 | 38 | 1021.6 |
| 20260501175446 | 63 | 84 | 1.7 | 9.6 | 0.00 | 0.00 | 0.00 | 39 | 1021.6 |
| 20260501175346 | 63 | 119 | 1.7 | 9.6 | 0.00 | 0.00 | 0.00 | 39 | 1021.6 |
| 20260501175330 | 63 | 115 | 1.7 | 9.6 | 0.00 | 0.00 | 0.00 | 39 | 1021.6 |
| 20260501175240 | 64 | 100 | 1.7 | 9.6 | 0.00 | 0.00 | 0.00 | 39 | 1021.6 |
| 20260501175140 | 64 | 96 | 1.7 | 6.1 | 0.00 | 0.00 | 0.00 | 39 | 1021.6 |
| 20260501175040 | 64 | 117 | 1.7 | 6.1 | 0.00 | 0.00 | 0.00 | 39 | 1021.7 |
| 20260501174940 | 64 | 96 | 1.7 | 6.1 | 0.00 | 0.00 | 0.00 | 39 | 1021.6 |
| 20260501174840 | 64 | 99 | 1.7 | 6.1 | 0.00 | 0.00 | 0.00 | 39 | 1021.6 |
| 20260501174829 | 64 | 74 | 1.7 | 6.1 | 0.00 | 0.00 | 0.00 | 39 | 1021.6 |
| 20260501174739 | 64 | 92 | 1.7 | 6.1 | 0.00 | 0.00 | 0.00 | 38 | 1021.6 |
| 20260501174638 | 64 | 95 | 1.7 | 6.1 | 0.00 | 0.00 | 0.00 | 38 | 1021.6 |
| 20260501174535 | 64 | 107 | 1.7 | 6.1 | 0.00 | 0.00 | 0.00 | 38 | 1021.6 |
| 20260501174435 | 64 | 125 | 1.7 | 6.1 | 0.00 | 0.00 | 0.00 | 38 | 1021.6 |
| 20260501174335 | 64 | 102 | 1.7 | 5.2 | 0.00 | 0.00 | 0.00 | 38 | 1021.6 |
| 20260501174329 | 64 | 106 | 1.7 | 5.2 | 0.00 | 0.00 | 0.00 | 38 | 1021.6 |
| 20260501174236 | 64 | 83 | 1.7 | 6.1 | 0.00 | 0.00 | 0.00 | 38 | 1021.7 |
| 20260501174136 | 64 | 64 | 1.7 | 6.1 | 0.00 | 0.00 | 0.00 | 38 | 1021.6 |
| 20260501174036 | 64 | 109 | 1.7 | 6.1 | 0.00 | 0.00 | 0.00 | 39 | 1021.6 |
| 20260501173934 | 64 | 119 | 1.7 | 6.1 | 0.00 | 0.00 | 0.00 | 38 | 1021.7 |
| 20260501173833 | 65 | 107 | 1.7 | 6.1 | 0.00 | 0.00 | 0.00 | 38 | 1021.6 |
| 20260501173828 | 65 | 103 | 1.7 | 6.1 | 0.00 | 0.00 | 0.00 | 38 | 1021.6 |
| 20260501173734 | 65 | 93 | 1.7 | 6.1 | 0.00 | 0.00 | 0.00 | 38 | 1021.6 |
| 20260501173634 | 65 | 108 | 1.7 | 6.1 | 0.00 | 0.00 | 0.00 | 37 | 1021.6 |
| 20260501173534 | 65 | 80 | 1.7 | 7.0 | 0.00 | 0.00 | 0.00 | 37 | 1021.6 |
| 20260501173432 | 65 | 91 | 1.7 | 7.0 | 0.00 | 0.00 | 0.00 | 37 | 1021.6 |
| 20260501173332 | 65 | 89 | 1.7 | 7.0 | 0.00 | 0.00 | 0.00 | 37 | 1021.6 |
| 20260501173321 | 65 | 140 | 1.7 | 7.0 | 0.00 | 0.00 | 0.00 | 37 | 1021.6 |
| 20260501173231 | 65 | 97 | 2.6 | 7.0 | 0.00 | 0.00 | 0.00 | 37 | 1021.6 |
| 20260501173131 | 65 | 90 | 2.6 | 8.7 | 0.00 | 0.00 | 0.00 | 37 | 1021.6 |
| 20260501173031 | 65 | 76 | 2.6 | 8.7 | 0.00 | 0.00 | 0.00 | 37 | 1021.6 |
| 20260501172929 | 65 | 89 | 2.6 | 8.7 | 0.00 | 0.00 | 0.00 | 37 | 1021.6 |
| 20260501172829 | 65 | 82 | 3.5 | 8.7 | 0.00 | 0.00 | 0.00 | 37 | 1021.6 |
| 20260501172816 | 65 | 109 | 3.5 | 8.7 | 0.00 | 0.00 | 0.00 | 37 | 1021.6 |
| 20260501172729 | 65 | 81 | 3.5 | 8.7 | 0.00 | 0.00 | 0.00 | 37 | 1021.5 |
| 20260501172629 | 65 | 73 | 3.5 | 8.7 | 0.00 | 0.00 | 0.00 | 37 | 1021.6 |
| 20260501172531 | 65 | 99 | 3.5 | 8.7 | 0.00 | 0.00 | 0.00 | 36 | 1021.6 |
| 20260501172428 | 65 | 94 | 3.5 | 8.7 | 0.00 | 0.00 | 0.00 | 36 | 1021.5 |
| 20260501172328 | 65 | 70 | 3.5 | 8.7 | 0.00 | 0.00 | 0.00 | 37 | 1021.6 |
| 20260501172312 | 65 | 97 | 3.5 | 8.7 | 0.00 | 0.00 | 0.00 | 37 | 1021.6 |
| 20260501172228 | 65 | 67 | 3.5 | 8.7 | 0.00 | 0.00 | 0.00 | 36 | 1021.5 |
| 20260501172128 | 65 | 79 | 3.5 | 8.7 | 0.00 | 0.00 | 0.00 | 36 | 1021.5 |
| 20260501172021 | 65 | 67 | 3.5 | 8.7 | 0.00 | 0.00 | 0.00 | 36 | 1021.3 |
| 20260501171921 | 65 | 102 | 2.6 | 8.7 | 0.00 | 0.00 | 0.00 | 36 | 1021.3 |
| 20260501171822 | 65 | 117 | 2.6 | 8.7 | 0.00 | 0.00 | 0.00 | 35 | 1021.3 |
| 20260501171812 | 65 | 82 | 2.6 | 8.7 | 0.00 | 0.00 | 0.00 | 35 | 1021.3 |
| 20260501171722 | 65 | 124 | 2.6 | 8.7 | 0.00 | 0.00 | 0.00 | 35 | 1021.5 |
| 20260501171622 | 65 | 80 | 2.6 | 7.0 | 0.00 | 0.00 | 0.00 | 35 | 1021.3 |
| 20260501171516 | 65 | 115 | 2.6 | 7.0 | 0.00 | 0.00 | 0.00 | 36 | 1021.3 |
| 20260501171416 | 66 | 118 | 1.7 | 6.1 | 0.00 | 0.00 | 0.00 | 35 | 1021.3 |
| 20260501171316 | 66 | 118 | 2.6 | 6.1 | 0.00 | 0.00 | 0.00 | 35 | 1021.3 |
| 20260501171312 | 66 | 131 | 2.6 | 6.1 | 0.00 | 0.00 | 0.00 | 35 | 1021.3 |
| 20260501171216 | 66 | 71 | 1.7 | 6.1 | 0.00 | 0.00 | 0.00 | 35 | 1021.3 |
| 20260501171115 | 66 | 149 | 1.7 | 6.1 | 0.00 | 0.00 | 0.00 | 35 | 1021.3 |
| 20260501171009 | 66 | 86 | 1.7 | 8.7 | 0.00 | 0.00 | 0.00 | 36 | 1021.3 |
| 20260501170909 | 66 | 118 | 2.6 | 9.6 | 0.00 | 0.00 | 0.00 | 36 | 1021.3 |
| 20260501170810 | 66 | 69 | 2.6 | 9.6 | 0.00 | 0.00 | 0.00 | 36 | 1021.3 |
| 20260501170710 | 66 | 46 | 2.6 | 9.6 | 0.00 | 0.00 | 0.00 | 36 | 1021.3 |
| 20260501170610 | 66 | 53 | 2.6 | 9.6 | 0.00 | 0.00 | 0.00 | 35 | 1021.3 |
| 20260501170539 | 66 | 71 | 2.6 | 9.6 | 0.00 | 0.00 | 0.00 | 35 | 1021.3 |
| 20260501170527 | 66 | 77 | 2.6 | 9.6 | 0.00 | 0.00 | 0.00 | 35 | 1021.3 |
| 20260501170523 | 66 | 92 | 2.6 | 9.6 | 0.00 | 0.00 | 0.00 | 35 | 1021.3 |
| 20260501170306 | 66 | 50 | 2.6 | 9.6 | 0.00 | 0.00 | 0.00 | 35 | 1021.3 |
| 20260501170206 | 66 | 119 | 3.5 | 9.6 | 0.00 | 0.00 | 0.00 | 35 | 1021.3 |
| 20260501170104 | 66 | 43 | 3.5 | 9.6 | 0.00 | 0.00 | 0.00 | 35 | 1021.5 |
| 20260501170042 | 66 | 34 | 3.5 | 10.4 | 0.00 | 0.00 | 0.00 | 35 | 1021.5 |
| 20260501170024 | 66 | 82 | 3.5 | 10.4 | 0.00 | 0.00 | 0.00 | 35 | 1021.3 |
| 20260501165801 | 66 | 68 | 3.5 | 10.4 | 0.00 | 0.00 | 0.00 | 35 | 1021.5 |
| 20260501165701 | 66 | 63 | 3.5 | 10.4 | 0.00 | 0.00 | 0.00 | 35 | 1021.5 |
| 20260501165501 | 66 | 87 | 3.5 | 10.4 | 0.00 | 0.00 | 0.00 | 34 | 1021.5 |
| 20260501165401 | 66 | 68 | 3.5 | 10.4 | 0.00 | 0.00 | 0.00 | 35 | 1021.5 |
| 20260501165311 | 66 | 69 | 3.5 | 10.4 | 0.00 | 0.00 | 0.00 | 35 | 1021.5 |
| 20260501165301 | 66 | 93 | 3.5 | 10.4 | 0.00 | 0.00 | 0.00 | 35 | 1021.5 |
| 20260501165201 | 66 | 80 | 3.5 | 10.4 | 0.00 | 0.00 | 0.00 | 34 | 1021.5 |
| 20260501165101 | 66 | 164 | 2.6 | 10.4 | 0.00 | 0.00 | 0.00 | 34 | 1021.5 |
| 20260501165038 | 66 | 118 | 2.6 | 7.8 | 0.00 | 0.00 | 0.00 | 34 | 1021.5 |
| 20260501165028 | 66 | 83 | 2.6 | 7.8 | 0.00 | 0.00 | 0.00 | 35 | 1021.5 |
| 20260501165024 | 66 | 98 | 2.6 | 7.8 | 0.00 | 0.00 | 0.00 | 34 | 1021.5 |
| 20260501164801 | 66 | 75 | 2.6 | 7.8 | 0.00 | 0.00 | 0.00 | 34 | 1021.5 |
| 20260501164700 | 66 | 65 | 2.6 | 7.8 | 0.00 | 0.00 | 0.00 | 35 | 1021.5 |
| 20260501164600 | 66 | 80 | 2.6 | 8.7 | 0.00 | 0.00 | 0.00 | 34 | 1021.5 |
| 20260501164501 | 66 | 53 | 2.6 | 8.7 | 0.00 | 0.00 | 0.00 | 35 | 1021.6 |
| 20260501164401 | 66 | 123 | 2.6 | 8.7 | 0.00 | 0.00 | 0.00 | 35 | 1021.6 |
| 20260501164312 | 66 | 98 | 2.6 | 8.7 | 0.00 | 0.00 | 0.00 | 34 | 1021.6 |
| 20260501164301 | 66 | 80 | 2.6 | 8.7 | 0.00 | 0.00 | 0.00 | 34 | 1021.6 |
| 20260501164200 | 66 | 90 | 2.6 | 8.7 | 0.00 | 0.00 | 0.00 | 34 | 1021.5 |
| 20260501164100 | 66 | 85 | 2.6 | 8.7 | 0.00 | 0.00 | 0.00 | 33 | 1021.6 |
| 20260501164001 | 66 | 104 | 3.5 | 8.7 | 0.00 | 0.00 | 0.00 | 33 | 1021.5 |
| 20260501163901 | 66 | 95 | 3.5 | 8.7 | 0.00 | 0.00 | 0.00 | 33 | 1021.6 |
| 20260501163813 | 67 | 72 | 3.5 | 8.7 | 0.00 | 0.00 | 0.00 | 33 | 1021.6 |
| 20260501163801 | 66 | 109 | 3.5 | 8.7 | 0.00 | 0.00 | 0.00 | 33 | 1021.6 |